Location: Vulcan
(50.4000°N, 113.2500°W)
Time: 20:18:29
(UTC-07:00)

Altair - Visible Passes

Search period start: 13 November 2019 00:00
Search period end: 23 November 2019 00:00
Orbit: 1502 x 1682 km, 47.2° (Epoch: 12 November)

Date Brightness Start Highest point End Pass type
(mag) Time Alt. Az. Time Alt. Az. Time Alt. Az.
13 Nov 9.1 03:25:02 17° SSE 03:27:54 20° SE 03:33:56 10° E visible
13 Nov 8.1 05:23:06 14° SW 05:30:49 50° SSE 05:39:41 10° E visible
14 Nov 9.1 03:01:49 18° SE 03:02:54 18° SE 03:08:30 10° E visible
14 Nov 8.1 04:59:52 21° SSW 05:05:44 48° SSE 05:14:29 10° E visible
14 Nov 7.7 07:00:35 10° WSW 07:09:44 73° S 07:19:08 10° E visible
15 Nov 9.2 02:38:29 16° ESE 02:38:29 16° ESE 02:43:00 10° E visible
15 Nov 8.1 04:36:33 29° SSW 04:40:40 45° SSE 04:49:18 10° E visible
15 Nov 7.7 06:35:28 10° WSW 06:44:36 72° S 06:53:57 10° E visible
16 Nov 9.4 02:15:06 13° ESE 02:15:06 13° ESE 02:17:24 10° E visible
16 Nov 8.1 04:13:08 36° S 04:15:37 43° SSE 04:24:07 10° E visible
16 Nov 7.6 06:11:11 13° WSW 06:19:27 71° S 06:28:46 10° E visible
17 Nov 9.6 01:51:37 10° E 01:51:37 10° E 01:51:39 10° E visible
17 Nov 8.1 03:49:40 40° SSE 03:50:33 40° SE 03:58:55 10° E visible
17 Nov 7.6 05:47:42 21° WSW 05:54:20 70° SSE 06:03:37 10° E visible
18 Nov 8.3 03:26:07 38° SE 03:26:07 38° SE 03:33:43 10° E visible
18 Nov 7.6 05:24:10 30° WSW 05:29:12 68° SSE 05:38:26 10° E visible
19 Nov 8.5 03:02:32 32° ESE 03:02:32 32° ESE 03:08:31 10° E visible
19 Nov 7.5 05:00:34 41° SW 05:04:05 67° SSE 05:13:16 10° E visible
19 Nov 7.7 06:59:16 10° W 07:08:24 72° S 07:17:47 10° ESE visible
20 Nov 8.8 02:38:54 26° ESE 02:38:54 26° ESE 02:43:18 10° E visible
20 Nov 7.5 04:36:55 53° SSW 04:38:58 65° SSE 04:48:06 10° E visible
20 Nov 7.6 06:34:58 13° W 06:43:16 73° S 06:52:37 10° ESE visible
21 Nov 9.2 02:15:14 20° E 02:15:14 20° E 02:18:05 10° E visible
21 Nov 7.4 04:13:16 62° S 04:13:51 63° SSE 04:22:56 10° E visible
21 Nov 7.5 06:11:17 20° W 06:18:08 74° S 06:27:28 10° ESE visible
22 Nov 9.4 01:51:32 14° E 01:51:32 14° E 01:52:51 10° E visible
22 Nov 7.6 03:49:34 59° SE 03:49:34 59° SE 03:57:47 10° E visible
22 Nov 7.5 05:47:35 28° W 05:53:00 74° S 06:02:18 10° ESE visible
